Home   Weather   Pirna   Past weeks

Flag for Germany Past Weather in Pirna, Saxony, Germany — Yesterday and Last 2 Weeks

Now
66 °F

Passing clouds.


Feels Like: 66 °F
Forecast: 53 / 69 °F
Wind: 6 mph from Southwest

Location: Dresden-Klotzsche

Current Time: Sep 30, 2016 at 3:29:28 AM

Latest Report: Sep 30, 2016 at 2:50 AM


Visibility: N/A

Pressure: 29.92 "Hg

Humidity: 60%

Dew Point: 52 °F

Location of PirnaLocation

Past Weather in Pirna — Graph

°F

Pirna Temperature Yesterday

Maximum temperature yesterday: 79 °F (at 3:20 PM)
Minimum temperature yesterday: 61 °F (at 3:20 AM)
Average temperature yesterday: 68 °F

High & Low Weather Summary for the Past Weeks

 TemperatureHumidityPressure
High79 °F (Sep 15, 3:20 PM)100% (Sep 17, 1:50 AM)30.33 "Hg (Sep 17, 1:50 AM)
Low43 °F (Sep 22, 5:20 AM)29% (Sep 29, 12:50 PM)29.83 "Hg (Sep 17, 3:50 AM)
Average59 °F75%30.10 "Hg
* Reported Sep 15 2:20 AM — Sep 30 2:20 AM, Pirna, Weather by CustomWeather, © 2016

Note: Actual official high and low records may vary slightly from our data, if they occured in-between our weather recording intervals... More about our weather records

Advertising

Pirna Weather History for the Previous 24 Hours

Scroll right to see more
 ConditionsComfort  
Time TempWeatherWind HumidityBarometerVisibility
2:20 AM
Fri, Sep 30
66 °FPassing clouds.9 mph60%29.92 "HgN/A
1:50 AM66 °FPassing clouds.7 mph60%29.92 "HgN/A
1:20 AM68 °FPassing clouds.9 mph53%29.92 "HgN/A
12:50 AM66 °FPassing clouds.7 mph60%29.92 "HgN/A
12:20 AM66 °FPassing clouds.8 mph60%29.92 "HgN/A
11:50 PM
Thu, Sep 29
66 °FClear.7 mph60%29.92 "Hg10 mi
11:20 PM66 °FClear.7 mph60%29.92 "Hg10 mi
10:50 PM66 °FClear.9 mph60%29.92 "Hg10 mi
10:20 PM66 °FClear.8 mph60%29.95 "Hg10 mi
9:50 PM66 °FClear.7 mph60%29.95 "Hg10 mi
9:20 PM66 °FClear.6 mph60%29.95 "Hg10 mi
8:50 PM68 °FClear.7 mph56%29.92 "Hg10 mi
8:20 PM68 °FClear.10 mph56%29.92 "Hg10 mi
7:50 PM70 °FClear.10 mph50%29.92 "Hg10 mi
7:20 PM72 °FClear.12 mph47%29.92 "Hg10 mi
6:50 PM72 °FClear.8 mph50%29.95 "Hg10 mi
6:20 PM73 °FSunny.13 mph47%29.95 "Hg10 mi
5:50 PM75 °FSunny.10 mph41%29.95 "Hg10 mi
5:20 PM77 °FPassing clouds.9 mph34%29.95 "HgN/A
4:50 PM77 °FPassing clouds.12 mph34%29.95 "HgN/A
4:20 PM77 °FPassing clouds.12 mph34%29.98 "HgN/A
3:50 PM79 °FPassing clouds.10 mph30%29.98 "HgN/A
3:20 PM79 °FPassing clouds.10 mph32%29.98 "HgN/A
2:50 PM77 °FPassing clouds.9 mph34%30.01 "HgN/A
2:20 PM77 °FPassing clouds.12 mph32%30.04 "HgN/A
1:50 PM75 °FPassing clouds.12 mph29%30.04 "HgN/A
1:20 PM73 °FPassing clouds.10 mph31%30.07 "HgN/A
12:50 PM73 °FPassing clouds.12 mph29%30.07 "HgN/A
12:20 PM73 °FPassing clouds.12 mph31%30.09 "HgN/A
11:50 AM72 °FPassing clouds.12 mph38%30.09 "HgN/A
11:20 AM72 °FScattered clouds.10 mph44%30.09 "HgN/A
10:50 AM68 °FBroken clouds.12 mph46%30.12 "HgN/A
10:20 AM68 °FBroken clouds.9 mph46%30.12 "HgN/A
9:50 AM66 °FSunny.9 mph52%30.12 "Hg10 mi
9:20 AM64 °FSunny.9 mph56%30.12 "Hg10 mi
8:50 AM64 °FScattered clouds.12 mph56%30.12 "HgN/A
8:20 AM63 °FSunny.13 mph59%30.12 "Hg10 mi
7:50 AM61 °FSunny.12 mph63%30.15 "Hg10 mi
7:20 AM63 °FPartly sunny.10 mph59%30.15 "HgN/A
6:50 AM63 °FPassing clouds.10 mph59%30.15 "HgN/A
6:20 AM61 °FPassing clouds.8 mph68%30.15 "HgN/A
5:50 AM61 °FClear.8 mph68%30.15 "Hg10 mi
5:20 AM61 °FClear.9 mph68%30.15 "Hg10 mi
4:50 AM61 °FClear.8 mph68%30.18 "Hg10 mi
4:20 AM61 °FClear.8 mph68%30.18 "Hg10 mi
3:50 AM61 °FClear.8 mph68%30.18 "Hg10 mi
3:20 AM61 °FClear.7 mph68%30.18 "Hg10 mi
Weather by CustomWeather, © 2016

See weather overviewHow to use our weather pages